Welcome to the New NWS' Forecast!
Most changes are behind the scenes, but click here for differences you might notice.

Regional Weather Roundup (RWR)

Issued by National Weather Service (NWS)

                            
517 
ASUS46 KSEW 180610
RWRWA 

WASHINGTON REGIONAL WEATHER ROUNDUP
NATIONAL WEATHER SERVICE SEATTLE WA
1100 PM PDT MON SEP 17 2018

NOTE:"FAIR" INDICATES FEW OR NO CLOUDS BELOW 12,000 FEET WITH NO 
SIGNIFICANT WEATHER AND/OR OBSTRUCTIONS TO VISIBILITY.

WAZ507-509-555>559-180700-
SEATTLE, TACOMA, EVERETT, AND VICINITY
  
CITY           SKY/WX    TMP DP  RH WIND       PRES   REMARKS
EVERETT        CLEAR     50  44  80 NW6       30.12S                  
6HR MIN TEMP:  50; 6HR MAX TEMP:  61;                                

BOEING FIELD   CLEAR     55  41  59 N3        30.12S                  
6HR MIN TEMP:  55; 6HR MAX TEMP:  65;                                

RENTON         CLEAR     56  43  61 NW8       30.11S                  
6HR MIN TEMP:  56; 6HR MAX TEMP:  66;                                

SEATAC AIRPORT CLEAR     55  43  63 N8        30.11S                  
6HR MIN TEMP:  55; 6HR MAX TEMP:  65;                                

JBLM-MCCHORD   NOT AVBL                                               
PUYALLUP       CLOUDY    48  46  93 CALM      30.11S                  
BREMERTON      CLEAR     52  41  66 NE9       30.11S                  
6HR MIN TEMP:  52; 6HR MAX TEMP:  64;                                

JBLM-FT LEWIS  NOT AVBL                                               
TACOMA NARROWS CLEAR     53  43  68 N6        30.12R                  
6HR MIN TEMP:  53; 6HR MAX TEMP:  63;                                

$$
 
WAZ001-503-506-510-514-515-180700-
NORTH INTERIOR
  
CITY           SKY/WX    TMP DP  RH WIND       PRES   REMARKS
BELLINGHAM     CLEAR     49  45  86 CALM      30.11S                  
6HR MIN TEMP:  47; 6HR MAX TEMP:  63;                                

FRIDAY HARBOR  PTCLDY    48  42  80 CALM      30.13S                  
6HR MIN TEMP:  46; 6HR MAX TEMP:  64;                                

EASTSOUND      CLEAR     48  48 100 CALM      30.11S                  
PORT ANGELES   CLEAR     49  43  80 W7        30.14S                  
6HR MIN TEMP:  47; 6HR MAX TEMP:  57;                                

EDIZ HOOK      FAIR      51  44  76 W8        30.13S                  
6HR MIN TEMP:  51; 6HR MAX TEMP:  56;                                

PORT TOWNSEND  FAIR      52  41  66 W5        30.12S                  
NAS WHIDBEY    CLEAR     52  46  80 CALM      30.16S                  
6HR MIN TEMP:  51; 6HR MAX TEMP:  59;                                

ARLINGTON      CLEAR     48  44  86 CALM      30.13S                  
6HR MIN TEMP:  47; 6HR MAX TEMP:  63;                                

BURLINGTON     PTCLDY    45  45 100 CALM      30.12S                  
$$
 
WAZ020-022-039-040-504-511-512-180700-
SOUTHWEST INTERIOR
  
CITY           SKY/WX    TMP DP  RH WIND       PRES   REMARKS
SHELTON        CLEAR     45  43  93 SW3       30.09S                  
6HR MIN TEMP:  45; 6HR MAX TEMP:  68;                                

OLYMPIA        CLEAR     46  42  86 SE3       30.11S                  
6HR MIN TEMP:  45; 6HR MAX TEMP:  65;                                

CHEHALIS       FAIR      48  48 100 CALM      30.11S                  
KELSO          CLEAR     51  47  86 CALM      30.10S                  
6HR MIN TEMP:  51; 6HR MAX TEMP:  67;                                

VANCOUVER      CLEAR     56  49  77 W7        30.06S                  
6HR MIN TEMP:  56; 6HR MAX TEMP:  68;                                

SCAPPOOSE, OR  CLEAR     55  46  71 NW7       30.07S                  
6HR MIN TEMP:  55; 6HR MAX TEMP:  68;                                

PORTLAND, OR   PTCLDY    58  48  69 NW10      30.07S                  
6HR MIN TEMP:  58; 6HR MAX TEMP:  70;                                

$$
 
WAZ021-516-517-180700-
WASHINGTON COAST
  
CITY           SKY/WX    TMP DP  RH WIND       PRES   REMARKS
FORKS          CLEAR     43  41  93 CALM      30.14S                  
6HR MIN TEMP:  43; 6HR MAX TEMP:  59;                                

HOQUIAM        CLEAR     52  44  74 N5        30.12S                  
6HR MIN TEMP:  51; 6HR MAX TEMP:  62;                                

ASTORIA, OR    CLEAR     56  47  71 N13       30.11F                  
6HR MIN TEMP:  56; 6HR MAX TEMP:  62;                                

$$
 
WAZ019-023-024-040-567>569-180700-
CASCADE MOUNTAINS AND COLUMBIA GORGE
  
CITY           SKY/WX    TMP DP  RH WIND       PRES   REMARKS
STAMPEDE PASS  FOG       43  43 100 CALM      30.10S VSB 3/4          
6HR MIN TEMP:  42; 6HR MAX TEMP:  51;                                

TROUTDALE, OR  PTCLDY    58  47  66 W5        30.06S                  
6HR MIN TEMP:  58; 6HR MAX TEMP:  70;                                

HOOD RIVER, OR PTCLDY    52  46  82 S3        30.05R                  
THE DALLES, OR MOCLDY    56  45  66 W3        30.02R                  
6HR MIN TEMP:  56; 6HR MAX TEMP:  72;                                

$$

WAZ026-027-041>044-520-521-180700-
EAST SLOPES
  
CITY           SKY/WX    TMP DP  RH WIND       PRES   REMARKS
OMAK           CLEAR     47  34  60 NW5       30.04R                  
6HR MIN TEMP:  47; 6HR MAX TEMP:  70;                                

WENATCHEE      CLEAR     55  36  48 CALM      30.03R                  
6HR MIN TEMP:  52; 6HR MAX TEMP:  68;                                

ELLENSBURG     CLEAR     54  43  66 N8        30.05R                  
6HR MIN TEMP:  49; 6HR MAX TEMP:  69;                                

YAKIMA         CLEAR     45  36  70 W6        30.04S                  
6HR MIN TEMP:  45; 6HR MAX TEMP:  68;                                

SUNNYSIDE ARPT PTCLDY    46  42  88 CALM      30.03S                  
6HR MIN TEMP:  46; 6HR MAX TEMP:  67;                                

YAKIMA TC      NOT AVBL                                               
$$

WAZ028-034-035-180700-
COLUMBIA BASIN
  
CITY           SKY/WX    TMP DP  RH WIND       PRES   REMARKS
EPHRATA        PTCLDY    56  33  42 W7        30.01F                  
6HR MIN TEMP:  47; 6HR MAX TEMP:  69;                                

MOSES LAKE     PTCLDY    52  33  48 N3        30.03R                  
6HR MIN TEMP:  51; 6HR MAX TEMP:  68;                                

PASCO          MOCLDY    50  44  80 CALM      30.02S                  
6HR MIN TEMP:  50; 6HR MAX TEMP:  70;                                

RICHLAND ARPT  MOCLDY    52  41  65 CALM      30.02R                  
6HR MIN TEMP:  52; 6HR MAX TEMP:  71;                                

HERMISTON, OR  MOCLDY    51  37  58 S6        30.01S                  
6HR MIN TEMP:  51; 6HR MAX TEMP:  71;                                

$$

WAZ036>038-180700-
NORTHEAST WASHINGTON
  
CITY           SKY/WX    TMP DP  RH WIND       PRES   REMARKS
SPOKANE GEIGER MOCLDY    50  31  48 W3        30.03F                  
6HR MIN TEMP:  50; 6HR MAX TEMP:  64;                                

SPOKANE FELTS  MOCLDY    50  37  61 CALM      30.04S                  
6HR MIN TEMP:  50; 6HR MAX TEMP:  66;                                

FAIRCHILD AFB  NOT AVBL                                               
COEURDALENE,ID MOCLDY    47  38  71 CALM      30.04S                  
6HR MIN TEMP:  46; 6HR MAX TEMP:  64;                                

DEER PARK      PTCLDY    43  36  76 CALM      30.04S                  
6HR MIN TEMP:  41; 6HR MAX TEMP:  64;                                

$$

WAZ029>033-180700-
SOUTHEAST WASHINGTON
  
CITY           SKY/WX    TMP DP  RH WIND       PRES   REMARKS
PULLMAN        MOCLDY    46  32  58 CALM      30.04S                  
6HR MIN TEMP:  45; 6HR MAX TEMP:  63;                                

LEWISTON, ID   MOCLDY    58  38  47 SW3       30.00S                  
6HR MIN TEMP:  58; 6HR MAX TEMP:  71;                                

WALLA WALLA    MOCLDY    58  36  43 S6        30.02S                  
6HR MIN TEMP:  57; 6HR MAX TEMP:  71;                                

PENDLETON, OR  MOCLDY    52  34  50 SE6       30.02S                  
6HR MIN TEMP:  51; 6HR MAX TEMP:  67;                                

$$